Shelton, WA
on Thursday, November 8, 2012

Thursday
Previous Day Next Day
Daily Summary
 ActualAverage (KOLM)Record (KOLM)
Temperature
Mean Temperature °F 45°F  
Max Temperature 54°F 52°F 62°F (1996)
Min Temperature 28°F 38°F 21°F (1977)
Degree Days
Heating Degree Days 24 20  
Month to date heating degree days 154  
Since 1 July heating degree days 948  
Cooling Degree Days 0 0  
Month to date cooling degree days 0  
Year to date cooling degree days 106  
Moisture
Dew Point 34°F   
Average Humidity 94    
Maximum Humidity 100    
Minimum Humidity 48    
Precipitation
Precipitation 0.00 in 0.27 in 1.17 in (1973)
Month to date precipitation 2.02  
Year to date precipitation 35.93  
Wind
Wind Speed 1 mph   
Max Wind Speed 9 mph   
Max Gust Speed 17 mph   
Visibility 5 miles   
Events Fog   

Key: T is trace of precipitation, MM is missing value
Source: NWS Daily Summary
Time(PST)TemperatureDew PointHumidity Pressure Visibility Wind DirectionWind SpeedGust SpeedPrecipitationEvents Conditions
12:53 AM 36.0°F 36.0°F 100% 29.92 in 10.0 miles Calm Calm - N/A   Overcast
1:53 AM 36.0°F 36.0°F 100% 29.90 in 8.0 miles Calm Calm - N/A   Scattered Clouds
2:22 AM 32.0°F 32.0°F 100% 29.88 in 2.0 miles SW 3.5 mph - N/A   Partly Cloudy
2:25 AM 32.0°F 30.2°F 93% 29.88 in 1.0 miles WSW 3.5 mph - N/A   Mist
2:32 AM 33.8°F 33.8°F 100% 29.88 in 0.8 miles Calm Calm - N/A   Mist
2:35 AM 35.6°F 33.8°F 93% 29.88 in 1.5 miles Calm Calm - N/A   Partly Cloudy
2:37 AM 35.6°F 35.6°F 100% 29.87 in 3.0 miles Calm Calm - N/A   Partly Cloudy
2:53 AM 34.0°F 33.1°F 96% 29.88 in 6.0 miles Calm Calm - N/A   Scattered Clouds
3:03 AM 33.8°F 33.8°F 100% 29.87 in 4.0 miles Calm Calm - N/A   Mostly Cloudy
3:24 AM 33.8°F 33.8°F 100% 29.86 in 1.5 miles Calm Calm - N/A   Overcast
3:35 AM 33.8°F 33.8°F 100% 29.85 in 2.0 miles Calm Calm - N/A   Scattered Clouds
3:43 AM 32.0°F 32.0°F 100% 29.85 in 1.0 miles Calm Calm - N/A   Mist
3:50 AM 33.8°F 33.8°F 100% 29.85 in 0.5 miles Calm Calm - N/A Fog Fog
3:53 AM 33.1°F 33.1°F 100% 29.86 in 0.5 miles Calm Calm - N/A Fog Fog
4:53 AM 33.1°F 33.1°F 100% 29.86 in 0.2 miles Calm Calm - N/A Fog Fog
5:25 AM 33.8°F 33.8°F 100% 29.85 in 0.5 miles Calm Calm - N/A Fog Fog
5:39 AM 33.8°F 33.8°F 100% 29.84 in 2.0 miles Calm Calm - N/A   Overcast
5:53 AM 34.0°F 34.0°F 100% 29.86 in 2.0 miles Calm Calm - N/A   Overcast
5:58 AM 33.8°F 33.8°F 100% 29.84 in 1.0 miles Calm Calm - N/A   Overcast
6:07 AM 33.8°F 33.8°F 100% 29.84 in 0.5 miles Calm Calm - N/A Fog Fog
6:21 AM 32.0°F 32.0°F 100% 29.83 in 1.2 miles Calm Calm - N/A   Scattered Clouds
6:34 AM 32.0°F 30.2°F 93% 29.83 in 1.0 miles Calm Calm - N/A   Mist
6:51 AM 30.2°F 30.2°F 100% 29.83 in 3.0 miles Calm Calm - N/A   Mostly Cloudy
6:53 AM 30.9°F 30.9°F 100% 29.84 in 4.0 miles Calm Calm - N/A   Mostly Cloudy
7:53 AM 35.1°F 35.1°F 100% 29.84 in 10.0 miles Calm Calm - N/A   Overcast
8:24 AM 37.4°F 37.4°F 100% 29.82 in 1.5 miles Calm Calm - N/A   Overcast
8:32 AM 37.4°F 37.4°F 100% 29.82 in 0.2 miles Calm Calm - N/A Fog Fog
8:53 AM 37.0°F 37.0°F 100% 29.84 in 0.2 miles Calm Calm - N/A Fog Fog
9:53 AM 37.9°F 37.9°F 100% 29.83 in 0.5 miles Calm Calm - N/A Fog Fog
10:34 AM 39.2°F 39.2°F 100% 29.81 in 1.5 miles Calm Calm - N/A   Overcast
10:42 AM 39.2°F 39.2°F 100% 29.81 in 3.0 miles ESE 3.5 mph - N/A   Overcast
10:53 AM 39.9°F 39.0°F 97% 29.83 in 5.0 miles Calm Calm - N/A   Overcast
11:32 AM 42.8°F 41.0°F 93% 29.80 in 10.0 miles Variable 4.6 mph - N/A   Overcast
11:51 AM 44.6°F 39.2°F 81% 29.80 in 10.0 miles SSE 3.5 mph - N/A   Scattered Clouds
11:53 AM 45.0°F 39.9°F 82% 29.81 in 10.0 miles Calm Calm - N/A   Scattered Clouds
12:53 PM 54.0°F 39.0°F 57% 29.80 in - East 6.9 mph - N/A   Clear
1:53 PM 51.1°F 32.0°F 48% 29.80 in 10.0 miles NE 9.2 mph 17.3 mph N/A   Clear
2:53 PM 50.0°F 34.0°F 54% 29.80 in 10.0 miles NNE 8.1 mph - N/A   Clear
3:53 PM 46.0°F 34.0°F 63% 29.81 in 10.0 miles North 3.5 mph - N/A   Clear
4:53 PM 42.1°F 36.0°F 79% 29.81 in 10.0 miles Calm Calm - N/A   Clear
5:53 PM 34.0°F 34.0°F 100% 29.82 in 10.0 miles SSW 3.5 mph - N/A   Clear
6:53 PM 33.1°F 33.1°F 100% 29.83 in 10.0 miles Calm Calm - N/A   Clear
7:53 PM 34.0°F 33.1°F 96% 29.83 in 10.0 miles Calm Calm - N/A   Clear
8:53 PM 33.1°F 32.0°F 96% 29.84 in 10.0 miles NW 3.5 mph - N/A   Clear
9:53 PM 28.9°F 28.0°F 96% 29.84 in 10.0 miles SSW 4.6 mph - N/A   Partly Cloudy
10:53 PM 30.0°F 28.9°F 96% 29.84 in 10.0 miles Calm Calm - N/A   Clear
11:53 PM 28.0°F 27.0°F 96% 29.85 in 10.0 miles Calm Calm - N/A   Clear
Moon Phase
Nov. 08 Nov. 13 Nov. 20 Nov. 28 Dec. 06
Sunrise:07:07 AM (PST) Moon Rise:12:45 AM (PST)11/8
Sunset:04:44 PM (PST) Moon Set:01:49 PM (PST)11/8

Copyright © 2014 The Weather Underground, Inc.